sat.trackr.live / text

‹ back to catalog

JAY-C

NORAD 62668 · 2025-009BM

PAYLOAD ACTIVE UNKNOWN

§ Identity

Operator
Country
CA
Launch date
2025-01-14
Launch site
AFWTR
Launch vehicle
Mass (kg)
RCS (m²)

External: N2YO · Heavens-Above · Gunter

§ Orbital elements

Epoch: 2026-09-22T20:10:31.842048Z

Period
94.56 min
Inclination
97.3897°
Eccentricity
0.0004479
Mean motion
15.22896522 rev/d
Perigee alt
494.0 km
Apogee alt
500.2 km
Semi-major
6,875.2 km
B*
1.0449e-4
RAAN
343.2024°
Arg perigee
18.0378°
Mean anomaly
342.1017°
Rev number
15,123

§ Raw data

JAY-C1 62668U 25009BM  26265.84064632  .00002380  00000+0  10449-3 0  99912 62668  97.3897 343.2024 0004479  18.0378 342.1017 15.22896522151234

JSON: /api/v1/satellites/62668 · /tle

For live sub-satellite position, see the globe view (requires WebGL).

§ Visibility from observer

Set your observer location to see the next 7 days of passes ≥ 10°. The values pass through the URL so the page stays shareable.

No JS? Fill the form by hand. The geolocation button needs JavaScript.